Torna al catalogo

COSMOS 2251 DEB

AttivoLEO
NORAD 40235·DEBRIS·🇷🇺 Russia

Lanciato Jun 16, 1993 da Plesetsk Cosmodrome

Loading…

Prossimi Passaggi (prossime 24 ore)

TLE

ObsoletoSource: Space-Track

Epoca: Aug 24, 2026, 23:11 UTC

1 40235U 93036BVQ 26236.96646391  .00004505  00000-0  70315-3 0  9991
2 40235  74.0178 310.5583 0011574 347.1619 185.8353 14.73133893631170

Traccia COSMOS 2251 DEB in tempo reale con AllMySat

Download on the App Store